Home   Weather   Alicante   Past weeks

Flag for Spain Past Weather in Alicante, Spain — Yesterday and Last 2 Weeks

Now
59 °F

Passing clouds.


Feels Like: 59 °F
Forecast: 55 / 70 °F
Wind: No wind

Location: Alicante / El Altet

Current Time: Apr 29, 2017 at 11:34:26 pm

Latest Report: Apr 29, 2017 at 10:30 pm


Visibility: N/A

Pressure: 29.98 "Hg

Humidity: 72%

Dew Point: 50 °F

Location of AlicanteLocation

Past Weather in Alicante — Graph

°F

Alicante Temperature Yesterday

Maximum temperature yesterday: 57 °F (at 11:00 am)
Minimum temperature yesterday: 52 °F (at 7:00 am)
Average temperature yesterday: 55 °F

High & Low Weather Summary for the Past Weeks

 TemperatureHumidityPressure
High79 °F (Apr 26, 12:30 pm)100% (Apr 15, 3:30 am)30.36 "Hg (Apr 15, 3:30 am)
Low48 °F (Apr 23, 5:00 am)36% (Apr 26, 12:00 pm)29.68 "Hg (Apr 26, 3:30 am)
Average61 °F70%30.04 "Hg
* Reported Apr 14 9:00 pm — Apr 29 9:30 pm, Alicante, Weather by CustomWeather, © 2017

Note: Actual official high and low records may vary slightly from our data, if they occured in-between our weather recording intervals... More about our weather records

Advertising

Alicante Weather History for the Previous 24 Hours

Scroll right to see more
 ConditionsComfort  
Time TempWeatherWind HumidityBarometerVisibility
9:30 pm
Sat, Apr 29
59 °FPassing clouds.2 mph72%29.95 "HgN/A
9:00 pm59 °FPassing clouds.3 mph72%29.95 "HgN/A
8:00 pm61 °FOvercast.2 mph63%29.95 "HgN/A
7:30 pm61 °FOvercast.3 mph63%29.95 "HgN/A
7:00 pm61 °FPartly sunny.3 mph63%29.95 "HgN/A
6:30 pm61 °FPartly sunny.5 mph63%29.95 "HgN/A
6:00 pm61 °FOvercast.6 mph63%29.98 "HgN/A
5:30 pm61 °FMore clouds than sun.7 mph63%29.98 "HgN/A
5:00 pm61 °FOvercast.8 mph59%29.98 "HgN/A
4:30 pm61 °FOvercast.7 mph59%29.98 "HgN/A
4:00 pm63 °FOvercast.7 mph56%29.98 "HgN/A
2:30 pm61 °FBroken clouds.8 mph55%29.98 "HgN/A
2:00 pm63 °FScattered clouds.10 mph56%29.98 "HgN/A
1:30 pm63 °FMore clouds than sun.8 mph52%30.01 "HgN/A
12:30 pm61 °FOvercast.9 mph55%30.01 "HgN/A
12:00 pm61 °FMore clouds than sun.10 mph55%30.01 "HgN/A
11:30 am61 °FOvercast.9 mph55%30.01 "HgN/A
11:00 am61 °FMore clouds than sun.9 mph55%30.01 "HgN/A
10:30 am59 °FOvercast.9 mph59%30.01 "HgN/A
9:30 am57 °FBroken clouds.6 mph67%30.01 "HgN/A
9:00 am57 °FBroken clouds.7 mph67%29.98 "HgN/A
8:30 am55 °FScattered clouds.7 mph72%29.98 "HgN/A
8:00 am55 °FBroken clouds.6 mph67%29.98 "HgN/A
7:30 am55 °FBroken clouds.6 mph67%29.98 "HgN/A
7:00 am55 °FPassing clouds.6 mph67%29.98 "HgN/A
6:30 am55 °FPassing clouds.6 mph67%29.98 "HgN/A
6:00 am55 °FPassing clouds.7 mph67%29.98 "HgN/A
5:30 am55 °FPassing clouds.5 mph67%29.98 "HgN/A
5:00 am54 °FLight rain. Passing clouds.6 mph72%30.01 "HgN/A
4:30 am55 °FPassing clouds.6 mph67%30.01 "HgN/A
4:00 am55 °FPassing clouds.7 mph63%30.01 "HgN/A
3:30 am54 °FPassing clouds.6 mph72%30.01 "HgN/A
3:00 am54 °FPassing clouds.6 mph72%30.01 "HgN/A
2:30 am54 °FPassing clouds.7 mph72%30.01 "HgN/A
2:00 am54 °FPassing clouds.8 mph72%30.01 "HgN/A
1:30 am54 °FPartly cloudy.7 mph72%30.04 "HgN/A
1:00 am55 °FPartly cloudy.9 mph72%30.04 "HgN/A
12:30 am55 °FPartly cloudy.7 mph72%30.04 "HgN/A
12:00 am54 °FPartly cloudy.7 mph77%30.07 "HgN/A
11:30 pm
Fri, Apr 28
54 °FPartly cloudy.7 mph77%30.07 "HgN/A
11:00 pm54 °FPartly cloudy.7 mph77%30.07 "HgN/A
Weather by CustomWeather, © 2017

See weather overviewHow to use our weather pages